Location: Breamore
(50.9500°N, 1.7667°W)
Time: 10:25:04
(UTC+00:00)

Daily predictions for brighter satellites

Satellite Brightness Start Highest point End
(mag) Time Altitude Azimuth Time Altitude Azimuth Time Altitude Azimuth
Cosmos 1943 3.9 19:43:10 10° SW 19:48:48 63° NW 19:54:29 10° NNE
Unknown 4.5 19:46:02 10° WNW 19:49:59 43° SSW 19:53:54 10° SE
Cosmos 2292 Rocket 3.9 19:50:05 10° N 19:55:38 84° W 19:59:44 10° S
ARGOS 3.2 19:50:47 10° SSE 19:56:08 77° ENE 20:01:31 10° NNW
TSX-5 4.4 19:54:20 10° NNW 19:57:25 36° NE 20:00:57 10° ESE
SL-08 RB Rocket 3.8 19:54:58 10° SSE 19:59:26 60° ENE 20:03:58 10° N
Meteor 2-4 Rocket 4.1 19:56:24 10° N 20:01:34 44° ENE 20:06:40 10° SE
Okean 1-7 3.9 19:57:29 10° NNW 20:01:48 54° W 20:06:05 10° S
Cosmos 2221 Rocket 3.6 19:58:05 10° N 20:02:32 80° E 20:06:56 10° SSE
Abrixas rocket 3.4 20:00:37 10° SSW 20:03:04 22° SSE 20:05:34 10° E
ATLAS 2AS CENTAUR R/B 4.2 19:57:09 10° WSW 20:04:54 48° NNW 20:12:35 10° NE
CZ-2C R/B 4.3 20:00:13 10° N 20:04:56 67° WNW 20:09:32 10° SSW
Spot 2 Rocket 4.0 20:00:08 10° SE 20:04:56 43° ENE 20:09:45 10° N
SPOT 3 Rocket 4.2 20:00:58 10° S 20:06:05 59° WSW 20:11:13 10° NNW
ASTEX 1 4.2 20:04:11 10° NNE 20:08:37 31° E 20:13:00 10° SSE
Cosmos 44 4.1 20:09:16 10° NW 20:13:31 41° WSW 20:17:36 10° S
RESURS DK-1 3.6 20:10:09 10° SW 20:14:11 47° NW 20:18:15 10° NNE
BREEZE-M DEB (TANK) 4.4 20:10:03 10° W 20:14:34 81° S 20:32:54 10° E
Cosmos 1745 Rocket 4.2 20:08:50 10° N 20:14:52 54° ENE 20:20:51 10° SSE
Resurs 1-3 3.7 20:13:02 10° SSE 20:17:26 80° WSW 20:21:51 10° NNW
CZ-2C R/B 2.9 20:15:33 10° SSE 20:20:16 71° ENE 20:25:05 10° N
SL-24 R/B 4.5 20:15:39 10° SSE 20:20:22 61° E 20:25:14 10° N
USA 234 4.3 20:15:18 10° SSE 20:21:21 39° SW 20:27:27 10° WNW
Cosmos 2112 Rocket 4.2 20:17:59 10° NNW 20:23:14 61° ENE 20:27:56 13° SE
Cosmos 2322 Rocket 4.5 20:20:59 10° N 20:23:33 13° NNE 20:26:07 10° NE
Okean 3 3.4 20:23:44 10° N 20:27:57 90° WNW 20:32:08 10° S
Meteor 1-11 Rocket 4.4 20:22:55 10° SSE 20:28:17 37° E 20:33:43 10° NNE
SL-24 R/B 4.2 20:27:22 10° SSE 20:32:05 86° ENE 20:36:30 10° NNW
Terra 3.4 20:34:26 13° ESE 20:37:20 22° ENE 20:40:55 10° N
Cosmos 1515 3.6 20:41:10 10° N 20:44:59 88° E 20:48:12 14° S
Resurs 01 Rocket 2.3 20:41:30 10° S 20:45:50 55° W 20:50:11 10° NNW
SJ 16-02 2.6 20:45:02 19° SE 20:46:26 22° E 20:49:53 10° NE
Cosmos 2278 4.4 20:41:12 10° NNW 20:46:34 41° NE 20:50:29 17° ESE
Cosmos 2082 Rocket 3.7 20:46:53 16° ESE 20:47:38 16° E 20:50:56 10° ENE
IGS 5A 4.3 20:46:43 20° ESE 20:49:00 36° ENE 20:52:49 10° N
Cosmos 1833 Rocket 3.8 20:47:16 18° SE 20:49:28 23° ESE 20:53:45 10° NE
GENESIS II 4.2 20:45:56 10° SSW 20:49:54 62° SE 20:53:58 10° NE
Cosmos 923 Rocket 4.5 20:44:41 10° NNW 20:49:59 61° WSW 20:55:02 11° S
H-2A R/B 3.3 20:46:00 10° SSW 20:50:40 38° W 20:55:18 10° NNW
Cosmos 1656 3.7 20:46:15 10° NNW 20:51:58 72° ENE 20:55:58 20° SE
SPOT 5 3.5 20:50:43 20° ESE 20:53:01 34° ENE 20:56:57 10° N
Aureole 3 Rocket 2.7 20:50:43 16° SSE 20:53:25 48° E 20:56:29 10° NNE
SL-16 R/B 4.2 20:50:40 10° N 20:54:29 18° NNE 20:58:17 10° ENE
MetOp-B 4.2 20:50:43 13° SSE 20:55:36 87° WSW 21:01:01 10° NNW
Meteor 1-5 Rocket 4.2 20:50:34 10° S 20:56:14 63° E 21:01:45 10° NNE
Cosmos 1898 Rocket 3.9 20:52:30 10° S 20:57:26 42° ESE 21:02:22 10° NE
Cosmos 1697 Rocket 3.0 20:53:19 10° NNW 20:58:54 54° NE 21:02:30 22° ESE
EXPRESS MD2 3.4 20:56:11 10° W 21:00:18 43° SSW 21:01:15 31° SSE
Cosmos 1809 Rocket 4.5 20:55:15 10° N 21:01:28 88° W 21:07:03 13° S
Cosmos 1680 Rocket 3.9 20:56:51 10° NNW 21:02:03 62° WSW 21:06:19 15° S
Cosmos 44 Rocket 3.6 20:57:28 10° NW 21:02:11 57° SW 21:05:15 20° SSE
Meteor 1-13 Rocket 4.3 20:58:09 10° NNW 21:03:49 78° W 21:08:55 13° S
BREEZE M DEB (TANK) 4.1 21:07:36 15° E 21:07:36 15° E 21:09:10 10° E
Cosmos 1666 3.7 21:05:46 26° ESE 21:06:21 27° E 21:09:37 10° NNE
USA 229 DEB 4.2 21:00:07 10° NW 21:07:11 60° NE 21:12:34 20° ESE
USA 229 4.2 21:00:13 10° NW 21:07:16 60° NE 21:12:40 19° ESE
Meteor 2-14 Rocket 4.4 21:01:15 10° N 21:07:24 83° E 21:12:11 18° SSE
Cosmos 1378 Rocket 3.6 21:06:52 10° NNW 21:11:17 78° W 21:14:20 20° S
ADEOS Rocket 3.4 21:05:52 10° N 21:11:38 65° WNW 21:18:01 10° SSW
Geosat 4.2 21:09:13 20° SSE 21:12:40 66° WSW 21:17:42 10° NW
Aureole 2 Rocket 4.4 21:11:12 10° WNW 21:12:59 16° WSW 21:14:40 10° SW
USA 245 4.0 21:09:57 20° SSE 21:13:14 85° WSW 21:18:58 10° NNW
Meteor 1-23 Rocket 4.2 21:07:30 10° N 21:13:17 74° ENE 21:16:53 23° SSE
CZ-2C R/B 2.6 21:08:33 10° NNE 21:13:47 64° ESE 21:18:16 15° S
Cosmos 1782 Rocket 4.1 21:12:17 29° SE 21:13:49 38° E 21:17:57 10° NNE
Cosmos 1733 Rocket 3.7 21:10:41 10° SSW 21:14:55 54° WNW 21:19:11 10° N
Cosmos 1674 Rocket 4.3 21:12:10 10° NNW 21:16:24 49° W 21:20:02 13° SSW
Cosmos 883 Rocket 4.5 21:12:23 12° S 21:18:17 72° E 21:24:38 10° NNE
COSMOS 2406 3.1 21:13:50 10° SSW 21:19:30 75° ESE 21:25:14 10° NNE
Cosmos 2098 Rocket 3.3 21:16:07 10° N 21:20:22 85° W 21:23:49 22° S
Cosmos 1980 Rocket 2.7 21:15:54 10° NNW 21:21:20 47° NE 21:24:16 25° ESE
ERS-1 Rocket 2.9 21:18:32 26° SSE 21:21:27 82° ENE 21:26:31 10° NNW
MTI 4.3 21:19:23 10° N 21:22:31 57° WNW 21:24:57 15° SSW
Cosmos 1536 2.8 21:24:02 23° S 21:26:33 88° E 21:30:39 10° N
Cosmos 1346 Rocket 3.1 21:26:49 39° ESE 21:27:15 40° E 21:30:54 10° NNE
USA 267 3.9 21:21:16 10° ENE 21:27:39 57° N 21:34:00 10° W
Cosmos 839 Rocket 4.5 21:22:47 10° SSW 21:31:34 71° SE 21:38:32 10° NE
Cosmos 2369 3.7 21:28:20 10° NNW 21:34:01 83° WSW 21:36:50 31° SSE
Cosmos 1975 Rocket 3.0 21:32:07 10° N 21:36:33 80° ENE 21:38:10 39° SSE
Iridium 2 4.0 21:35:53 24° SSW 21:37:59 61° W 21:41:43 10° N
Abrixas rocket 3.1 21:35:40 10° WSW 21:37:41 33° SW 21:37:41 33° SW
GP-B 3.9 21:36:36 10° N 21:40:54 49° W 21:44:20 15° SSW
Cosmos 1709 Rocket 4.1 21:34:54 10° NNW 21:41:01 72° W 21:45:06 22° S
Cosmos 1500 4.1 21:40:13 15° SSW 21:43:11 49° WNW 21:46:57 10° N
Landsat 7 4.1 21:41:53 28° S 21:44:17 64° WSW 21:49:03 10° NNW
SPOT 1/Viking Rocket 3.8 21:42:21 27° S 21:45:14 66° WSW 21:50:28 10° NNW
Cosmos 1937 Rocket 3.4 21:42:17 19° SSW 21:46:06 76° ESE 21:51:27 10° NNE
Cosmos 2074 Rocket 4.1 21:42:42 10° N 21:48:59 61° ENE 21:51:38 35° SE
Cosmos 990 Rocket 4.0 21:44:28 10° SSW 21:49:42 84° WNW 21:54:56 10° NNE
Okean 2 3.4 21:46:19 10° N 21:50:24 62° ENE 21:51:03 53° ESE
Cosmos 405 4.3 21:48:41 10° N 21:51:41 28° ENE 21:51:41 28° ENE
Cosmos 2184 Rocket 4.0 21:47:23 10° N 21:53:33 63° ENE 21:55:58 37° SE
Cosmos 2315 Rocket 4.1 21:48:47 18° SSW 21:53:43 83° W 22:00:07 10° N
Cosmos 1378 4.0 21:54:13 10° N 21:57:35 35° ENE 21:57:35 35° ENE
Uosat 12 SS-18 rocket 4.5 21:53:17 10° NW 21:59:07 76° SW 22:00:35 46° SSE
USA 32 4.1 21:54:51 10° N 22:00:06 75° W 22:02:21 35° S
Cosmos 2150 Rocket 4.2 21:59:39 45° SE 22:00:22 48° ESE 22:05:22 10° NNE
CARTOSAT-1 3.8 21:59:09 40° SSW 22:00:29 61° WSW 22:04:48 10° NNW
NOSS 3-1 (C) 4.0 21:54:12 10° NW 22:01:33 88° NE 22:05:46 33° SE
Cosmos 372 Rocket 4.3 22:03:13 43° ESE 22:03:36 43° ESE 22:08:32 10° NE
Cosmos 2298 Rocket 4.1 22:02:35 45° SSE 22:03:50 56° ESE 22:09:03 10° NNE
Cosmos 1300 Rocket 4.2 22:04:06 38° E 22:04:06 38° E 22:08:01 10° NNE
Cosmos 1340 2.5 22:05:00 71° SSW 22:05:22 85° WNW 22:09:10 10° NNE
Lacrosse 4 Rocket 4.2 22:03:51 10° N 22:05:24 12° NNE 22:06:56 10° NE
Cosmos 2360 4.2 22:01:33 10° NNW 22:07:16 80° WSW 22:09:09 44° SSE
EO 1 Del DPAF 4.0 22:04:15 10° N 22:07:56 49° WNW 22:09:30 29° SW
MOS 1 Rocket 3.5 22:03:45 10° NNE 22:09:08 81° ESE 22:11:12 40° S
Cosmos 2322 Rocket 3.3 22:04:12 10° NNW 22:09:25 36° NE 22:11:46 25° E
Meteor 2-8 Rocket 4.4 22:08:12 30° S 22:11:22 88° WNW 22:17:28 10° N
Cosmos 468 4.4 22:07:25 10° NNW 22:12:42 84° ENE 22:14:02 52° SSE
Terra 2.0 22:13:19 44° SSW 22:14:40 64° WSW 22:19:26 10° NNW
Helios 1A 3.7 22:16:09 38° ENE 22:16:23 38° ENE 22:20:17 10° N
Okean 2 Rocket 2.9 22:16:42 69° SSE 22:17:08 78° E 22:21:34 10° NNE
Cosmos 1743 2.6 22:20:32 82° NNE 22:20:32 82° NNE 22:24:12 10° N
SJ 16-02 2.2 22:21:58 20° SW 22:24:43 48° WNW 22:29:03 10° NNE
Sich 1 Rocket 4.2 22:23:58 33° SW 22:25:41 53° WNW 22:30:07 10° N
Mayak -0.2 22:21:54 10° NNE 22:25:01 34° ENE 22:25:01 34° ENE
Cosmos 1536 Rocket 3.4 22:21:27 10° N 22:25:56 80° E 22:26:13 75° SE
Cosmos 2278 4.4 22:25:27 10° NW 22:30:46 43° WSW 22:32:23 35° SSW
Cosmos 2082 Rocket 2.1 22:28:40 39° SSW 22:30:51 85° ESE 22:36:35 10° NNE
SPOT 5 4.0 22:29:57 26° SW 22:31:10 30° W 22:35:01 10° NNW
CZ-4C R/B 3.8 22:33:51 20° E 22:33:51 20° E 22:36:33 10° ENE
Thor Agena Rocket 4.1 22:27:23 10° N 22:32:26 56° WNW 22:35:21 25° SW
Cosmos 1833 Rocket 2.8 22:28:52 20° SW 22:32:51 72° WNW 22:38:31 10° NNE
Cosmos 1975 2.8 22:33:48 80° N 22:33:48 80° N 22:37:38 10° N
Cosmos 1048 Rocket 3.9 22:32:08 10° NNW 22:37:15 74° WSW 22:38:02 61° SSW
Meteor 2-9 Rocket 4.3 22:37:24 54° SE 22:38:26 63° E 22:44:14 10° NNE
SL-16 R/B 2.5 22:34:13 10° NNW 22:39:51 59° NE 22:41:15 46° ESE
Cosmos 1025 Rocket 2.9 22:36:55 10° N 22:41:19 87° W 22:41:20 87° WSW
Cosmos 1842 3.4 22:37:54 10° NNW 22:41:29 71° NNW 22:41:29 71° NNW
Cosmos 1666 4.4 22:40:39 24° WSW 22:41:53 29° WNW 22:45:16 10° N
Cosmos 1697 Rocket 3.9 22:37:41 10° NW 22:42:38 31° WSW 22:44:14 27° SW
ALOS 2 3.5 22:42:34 36° ENE 22:42:43 36° ENE 22:46:44 10° N
Cosmos 1867 3.5 22:37:23 10° NW 22:42:55 83° NE 22:43:55 61° SE
Cosmos 1610 Rocket 4.4 22:37:01 10° N 22:43:12 86° W 22:44:51 52° S
Spot 4 3.7 22:42:47 71° ESE 22:43:12 78° ENE 22:48:02 10° NNW
Meteor 1-21 4.1 22:38:02 10° NNW 22:43:45 83° W 22:44:55 58° S
IRAS Rocket 4.2 22:42:51 56° S 22:44:06 81° WSW 22:49:45 10° NNW
Cosmos 1269 Rocket 3.9 22:45:16 10° NNW 22:50:35 78° ENE 22:51:16 67° SE
Cosmos 1707 3.7 22:53:47 10° N 22:56:46 41° NE 22:56:46 41° NE
USA 229 DEB 4.3 22:51:17 10° NW 22:58:07 47° WSW 22:59:59 40° SSW
USA 229 4.3 22:51:22 10° NW 22:58:14 47° WSW 23:00:05 40° SSW
Cosmos 2360 Rocket 3.1 22:54:47 10° NNW 23:00:08 42° NE 23:01:51 33° E
Cosmos 2151 Rocket 3.8 23:00:08 61° W 23:00:24 63° WNW 23:04:53 10° N
NOSS 3-1 (A) 4.0 22:54:20 10° NW 23:01:43 69° SW 23:04:17 47° SSE
Cosmos 1125 Rocket 3.3 23:01:58 76° SSE 23:02:14 79° ESE 23:07:31 10° NNE
Cosmos 1980 Rocket 3.0 23:00:08 10° NW 23:05:14 36° WSW 23:06:01 35° SW
Cosmos 2219 Rocket 4.1 23:02:47 10° NNW 23:07:11 23° NE 23:10:57 12° E
SL-27 R/B 3.8 23:11:12 40° N 23:11:12 40° N 23:13:45 10° NNE
USA 267 3.8 23:03:50 10° E 23:10:12 57° N 23:16:34 10° WNW
APEX 3.7 23:08:19 10° NNW 23:13:54 87° NE 23:13:54 87° NE
Cosmos 962 Rocket 4.4 23:07:58 10° N 23:14:08 85° W 23:15:16 62° S
ARGOS Delta rocket 4.5 23:13:30 49° SW 23:14:13 52° W 23:19:33 10° NNW
Cosmos 2154 Rocket 4.4 23:12:10 10° NNW 23:18:16 55° W 23:19:47 45° SW
Cosmos 2218 Rocket 4.2 23:12:13 10° N 23:18:34 63° ENE 23:19:48 53° SE
In-Cosmos 22 4.3 23:14:35 10° N 23:19:54 57° ENE 23:20:17 55° E
Cosmos 1441 Rocket 4.5 23:21:40 37° NE 23:21:40 37° NE 23:24:18 10° NNE
Cosmos 494 Rocket 4.1 23:15:51 10° NNW 23:20:55 61° WSW 23:20:56 61° WSW
Meteor 2-17 Rocket 4.3 23:19:54 10° N 23:26:07 83° E 23:27:03 66° SSE
COSMOS 2455 4.2 23:20:41 10° NNW 23:26:10 34° NE 23:30:13 17° E
Nadezhda 1 Rocket 4.4 23:26:01 39° SW 23:28:01 54° WNW 23:34:03 10° N
Okean 1 Rocket 3.3 23:28:33 65° NNW 23:28:33 65° NNW 23:32:29 10° N
Meteor 1-4 Rocket 4.3 23:25:14 10° N 23:27:49 29° NE 23:27:49 29° NE
Cosmos 1544 4.5 23:34:28 38° NNW 23:34:28 38° NNW 23:36:53 10° N
Cosmos 1455 Rocket 4.2 23:37:40 36° ENE 23:37:40 36° ENE 23:40:49 10° NNE
Cosmos 2251 Rocket 3.7 23:31:41 10° NNW 23:37:00 61° ENE 23:37:31 58° E
Cosmos 1674 4.3 23:37:27 10° N 23:40:06 30° NE 23:40:06 30° NE
Helios 1B rocket 3.1 23:41:08 10° NNE 23:44:20 53° NNE 23:44:20 53° NNE
Lacrosse 4 Rocket 2.5 23:41:23 10° NNW 23:45:17 37° NE 23:45:17 37° NE
Cosmos 1437 Rocket 4.4 23:42:18 10° N 23:45:26 29° NE 23:45:26 29° NE
Cosmos 2333 Rocket 3.4 23:43:19 10° NNW 23:48:34 37° NE 23:50:58 26° E
ERS-2 3.6 23:50:11 35° NNE 23:50:11 35° NNE 23:52:40 10° N
ATLAS 2AS CENTAUR R/B 4.1 23:43:19 10° NW 23:50:49 42° NNE 23:57:52 10° E
Cosmos 2322 Rocket 2.5 23:48:14 10° NW 23:53:33 51° WSW 23:53:33 51° WSW
Okean 1-7 Rocket 4.1 23:50:23 10° NNW 23:54:02 54° NW 23:54:02 54° NW
Cosmos 1626 Rocket 4.4 23:50:52 10° N 23:54:43 45° NE 23:54:43 45° NE
